Location: Buchloe
(48.0161°N, 10.7316°E)
Time: 06:59:06
(UTC+01:00)

ISS - Visible Passes

Search period start: 11 December 2017 00:00
Search period end: 21 December 2017 00:00
Orbit: 402 x 407 km, 51.6° (Epoch: 11 December)

Date Brightness Start Highest point End Pass type
(mag) Time Alt. Az. Time Alt. Az. Time Alt. Az.
11 Dec -4.0 18:11:55 10° WNW 18:15:13 81° NNE 18:15:48 57° E visible
12 Dec -3.7 17:19:39 10° WNW 17:22:55 59° NNE 17:25:59 11° E visible
12 Dec -2.0 18:56:16 10° WNW 18:58:40 31° WSW 18:58:40 31° WSW visible
13 Dec -3.3 18:03:54 10° WNW 18:07:09 57° SSW 18:09:02 22° SE visible
14 Dec -3.8 17:11:36 10° WNW 17:14:54 88° SSW 17:18:12 10° ESE visible
14 Dec -1.2 18:48:41 10° W 18:51:01 18° SW 18:52:20 15° SSW visible
15 Dec -1.9 17:55:59 10° W 17:58:55 29° SW 18:01:49 10° SSE visible
16 Dec -2.7 17:03:32 10° WNW 17:06:44 48° SSW 17:09:54 10° SE visible
17 Dec -0.7 17:48:30 10° W 17:50:30 15° SW 17:52:29 10° S visible
